Location: Gellin
(53.4498°N, 14.3207°E)
Time: 23:36:05
(UTC+00:00)

Cosmos 2297 - Pass Details

Date: 03 March 2021
Orbit: 835 x 859 km, 71.0° (Epoch: 12 April)

Event Time Altitude Azimuth Distance (km) Brightness Sun altitude
Rises 19:59:22 0° 328° (NNW) 3,447 7.8 -28.7°
Reaches altitude 10° 20:01:54 10° 333° (NNW) 2,505 6.9 -29.1°
Enters shadow 20:06:41 50° 17° (NNE) 1,081 4.2 -29.7°
